Terminal Aerodrome Forecast
Issued by NWS Omaha/Valley, NE

Home | Current Version | Previous Version | Text Only | Print | Product List | Glossary On
Versions: 1 2 3 4 5 6 7 8 9 10 11 12 13 14 15 16 17 18 19 20 21 22 23 24 25 26 27 28 29
000
FTUS43 KOAX 291026 AAA
TAFLNK
TAF AMD
KLNK 291026Z 2910/3006 02010KT 6SM -SN SCT009 OVC050
      TEMPO 2910/2914 2SM -SN BR OVC008
     FM291800 01015KT 4SM -SN OVC020
     FM300200 35015KT P6SM OVC035=

USA.gov is the U.S. government's official web portal to all federal, state and local government web resources and services.